Location: Spring Creek
(38.2870°N, 100.2160°W)
Time: 11:49:20
(UTC+00:00)

Cosmos 1486 Rocket - Pass Details

Date: 08 May 2021
Orbit: 759 x 783 km, 74.1° (Epoch: 22 June)

Event Time Altitude Azimuth Distance (km) Brightness Sun altitude
Rises 03:12:27 0° 203° (SSW) 3,246 7.1 -16.7°
Reaches altitude 10° 03:14:50 10° 206° (SSW) 2,325 6.4 -17.0°
Maximum altitude 03:20:06 69° 290° (WNW) 838 4.3 -17.8°
Drops below altitude 10° 03:25:25 10° 13° (NNE) 2,346 6.9 -18.6°
Sets 03:27:50 0° 16° (NNE) 3,277 7.6 -19.0°
